Volver al catálogo

STARLINK-35226

ActivoComunicacionesVLEO
NORAD 65492·PAYLOAD·🇺🇸 United States

Lanzado Sep 5, 2025 desde Cape Canaveral Space Force Station

Loading…

Próximos Pases (próximas 24 horas)

TLE

ActualizadoSource: CelesTrak SupGP

Época: Sep 14, 2026, 22:52 UTC

1 65492C 25198A   26257.95326389 -.00012759  00000+0 -37706-3 0  2576
2 65492  53.1585 107.4870 0001275  85.0445 117.8632 15.34389092    16

Sigue STARLINK-35226 en tiempo real con AllMySat

Download on the App Store